Location: Goodsell Observatory
(44.4617°N, 93.1522°W)
Time: 10:45:21
(UTC-06:00)

Daily predictions for brighter satellites

Satellite Brightness Start Highest point End
(mag) Time Altitude Azimuth Time Altitude Azimuth Time Altitude Azimuth
Timation 1 Rocket 4.5 17:03:55 10° S 17:09:48 62° ESE 17:15:44 10° NNE
CZ-4 R/B 2.1 17:07:09 10° SE 17:10:30 29° ENE 17:13:52 10° N
Cosmos 540 Rocket 4.3 17:06:46 10° N 17:11:12 28° ENE 17:15:36 10° ESE
IRAS Rocket 4.2 17:07:41 10° SSE 17:13:13 79° ENE 17:18:45 10° NNW
CSL-04 Rocket 3.6 17:09:30 10° SSE 17:14:43 66° ENE 17:20:03 10° N
Cosmos 44 4.2 17:12:06 10° NNW 17:16:01 26° NE 17:20:04 10° E
Cosmos 2082 Rocket 2.8 17:11:47 10° N 17:16:58 34° NE 17:22:05 10° ESE
Cosmos 2233 Rocket 4.1 17:11:17 10° SSE 17:17:21 56° E 17:23:24 10° NNE
Cosmos 1340 3.1 17:13:45 10° SSW 17:17:30 67° WNW 17:21:17 10° N
Cosmos 1862 Rocket 3.6 17:13:37 10° S 17:18:00 72° E 17:22:30 10° NNE
Cosmos 2242 Rocket 3.8 17:16:37 10° S 17:21:10 81° W 17:25:43 10° N
Ariane Rocket 3.0 17:16:35 10° SSE 17:21:37 67° ENE 17:26:40 10° N
Cosmos 1437 2.7 17:20:54 10° S 17:24:03 87° W 17:27:15 10° N
Cosmos 841 Rocket 3.5 17:19:04 10° NNW 17:24:21 64° ENE 17:29:33 10° SSE
BREEZE-M DEB (TANK) 2.6 17:23:11 10° WNW 17:25:03 28° N 17:27:37 12° ENE
Sich 1 Rocket 4.0 17:21:01 10° N 17:25:12 39° ENE 17:29:23 10° SE
Meteor 1-20 Rocket 4.3 17:19:52 10° N 17:25:16 50° ENE 17:30:34 10° SSE
ERS-2 3.1 17:25:03 10° ESE 17:28:08 25° ENE 17:31:11 10° N
Meteor 1-25 Rocket 4.3 17:22:28 10° N 17:28:15 59° ENE 17:33:58 10° SSE
Okean 1-7 4.1 17:25:16 10° SE 17:28:50 25° E 17:32:26 10° NNE
AQUARIUS 4.1 17:26:25 10° SSE 17:30:52 70° ENE 17:35:21 10° N
SJ-7 4.4 17:29:22 10° SSE 17:33:31 87° E 17:37:38 10° NNW
ALOS 3.4 17:30:19 10° ESE 17:33:56 23° ENE 17:37:33 10° NNE
Cosmos 1782 3.5 17:31:02 10° SSE 17:34:37 32° E 17:38:12 10° NNE
Cosmos 405 Rocket 4.3 17:33:27 10° SE 17:35:45 16° E 17:36:33 15° ENE
Cosmos 1486 Rocket 4.0 17:34:19 10° S 17:39:29 69° ESE 17:44:43 10° NNE
SMAP 3.1 17:36:25 10° SSE 17:41:04 89° NE 17:45:44 10° NNW
Cosmos 1844 Rocket 4.0 17:37:53 10° SW 17:43:07 38° NW 17:48:21 10° NNE
Cosmos 1633 2.8 17:41:33 10° N 17:45:07 46° ENE 17:48:39 10° SSE
Cosmos 1782 Rocket 3.7 17:44:02 10° N 17:48:16 48° ENE 17:52:29 10° SSE
USA 116 3.9 17:45:43 10° NNE 17:50:09 61° E 17:54:01 10° S
CZ-4C R/B 3.3 17:44:25 10° NNW 17:50:57 41° NE 17:58:04 11° ESE
CENTAUR R/B 3.6 17:48:41 10° WSW 17:54:36 43° NW 18:01:22 10° NNE
COSMO-SKYMED 1 3.0 17:50:55 10° NNE 17:55:00 39° E 17:59:04 10° SSE
YAOGAN 1 2.5 17:51:54 10° SSE 17:56:11 70° ENE 18:00:31 10° N
Cosmos 1354 Rocket 4.2 17:52:36 10° S 17:57:41 51° ESE 18:02:23 12° NNE
FENGYUN 3A 4.0 17:53:45 10° SE 17:58:46 40° ENE 18:03:47 10° N
SPOT 3 Rocket 3.7 17:59:45 10° SE 18:04:47 52° ENE 18:09:51 10° N
Meteor 1-10 Rocket 4.3 17:59:57 10° S 18:05:29 58° E 18:11:11 10° NNE
Cosmos 1833 Rocket 2.6 18:05:12 10° NNW 18:10:52 84° ENE 18:16:30 10° SSE
Nadezhda 4 Rocket 4.3 18:08:21 10° N 18:14:07 41° ENE 18:19:50 10° SE
Cosmos 1072 Rocket 4.4 18:09:31 10° S 18:15:43 75° E 18:22:03 10° NNE
Cosmos 2221 Rocket 3.4 18:13:07 10° S 18:17:30 74° E 18:21:55 10° NNE
Cosmos 1703 Rocket 3.9 18:13:24 10° SSW 18:17:50 70° W 18:22:19 10° N
Cosmos 2297 3.6 18:13:43 10° SSW 18:19:24 73° ESE 18:23:47 18° NNE
Cosmos 2151 Rocket 4.2 18:16:06 10° N 18:19:30 33° NE 18:19:30 33° NE
Cosmos 2034 Rocket 4.0 18:16:28 10° S 18:22:40 58° E 18:28:52 10° NNE
Cosmos 2278 Rocket 3.1 18:17:29 10° SW 18:22:57 48° WNW 18:28:27 10° NNE
Intercosmos 25 4.5 18:15:23 10° S 18:23:22 82° W 18:28:09 10° N
SKYMED 3 4.4 18:20:53 11° NNE 18:25:06 83° ESE 18:29:26 10° SSW
Meteor 2-20 4.4 18:19:28 10° N 18:25:30 62° ENE 18:31:30 10° SSE
Timation 2 Rocket 4.2 18:20:04 10° NNW 18:26:43 52° ENE 18:31:12 20° SE
NOAA 12 4.0 18:25:45 10° SSE 18:31:04 77° ENE 18:36:23 10° N
Cosmos 1092 Rocket 4.3 18:26:27 10° N 18:32:11 39° ENE 18:37:56 10° SE
Okean 2 Rocket 3.1 18:28:49 10° N 18:33:23 87° WSW 18:37:53 10° S
BREEZE-M R/B 4.1 18:30:45 10° W 18:33:24 32° SSW 18:37:03 12° SSE
Cosmos 44 Rocket 3.2 18:28:54 10° NW 18:33:47 90° WSW 18:37:32 18° SSE
Meteor 1-11 Rocket 3.7 18:28:20 10° N 18:34:12 68° ENE 18:39:54 10° SSE
Cosmos 1606 3.9 18:32:49 10° SSW 18:36:26 42° WNW 18:40:03 10° N
Cosmos 1441 Rocket 3.1 18:33:02 10° S 18:36:57 68° E 18:36:58 68° E
Cosmos 405 2.9 18:34:15 10° N 18:37:52 90° NE 18:41:27 10° S
Cosmos 292 Rocket 3.8 18:35:50 10° NNW 18:40:37 81° WSW 18:45:21 10° SSE
SKYMED 2 3.9 18:39:08 12° N 18:43:07 64° WNW 18:47:24 10° SSW
CZ-4 R/B 3.9 18:42:36 10° SW 18:45:34 21° W 18:48:34 10° NW
EO 1 Del DPAF 3.8 18:43:30 24° N 18:45:35 57° WNW 18:49:19 10° SSW
Lacrosse 5 3.6 18:43:27 10° NW 18:47:07 20° N 18:47:38 19° N
Cosmos 1464 Rocket 4.3 18:44:03 10° SSW 18:50:08 67° W 18:56:18 10° N
Cosmos 44 4.0 18:52:53 10° NW 18:57:27 51° WSW 19:01:17 15° S
Cosmos 968 Rocket 3.3 18:54:17 10° SSW 18:59:26 75° ESE 18:59:38 74° E
USA 234 3.2 18:58:41 49° ENE 19:00:33 72° SE 19:07:04 10° SW
Cosmos 2082 Rocket 3.5 18:55:50 10° NW 19:01:07 40° WSW 19:06:20 10° S
Meteor 2-20 Rocket 4.4 19:03:18 10° N 19:09:25 80° W 19:15:28 10° S
ALOS 3.4 19:06:41 10° S 19:11:06 42° W 19:15:34 10° NNW
Cosmos 405 Rocket 4.1 19:08:00 10° SW 19:11:30 35° WNW 19:11:48 34° WNW
FengYun 1-2 T 4.4 19:22:02 24° S 19:25:24 69° WSW 19:30:59 10° NNW
CZ-4C R/B 3.3 19:32:50 10° NW 19:39:55 60° WSW 19:43:23 34° S
USA 229 DEB 4.1 19:47:49 10° SW 19:52:44 53° SW 19:52:44 53° SW
USA 229 4.2 19:47:55 10° SW 19:52:47 52° SW 19:52:47 52° SW
Cosmos 2369 Rocket 4.5 19:52:41 10° SSW 19:53:19 13° SSW 19:53:19 13° SSW
